TimePDT,TemperatureF,Dew PointF,Humidity,Sea Level PressureIn,VisibilityMPH,Wind Direction,Wind SpeedMPH,Gust SpeedMPH,PrecipitationIn,Events,Conditions,WindDirDegrees,DateUTC
12:54 AM,75.0,24.1,15,29.82,10.0,NNW,13.8,-,N/A,,Clear,340,2013-05-04 07:54:00
1:54 AM,78.1,21.0,12,29.82,10.0,North,17.3,-,N/A,,Clear,350,2013-05-04 08:54:00
2:54 AM,73.0,24.1,16,29.82,10.0,NNW,15.0,-,N/A,,Clear,330,2013-05-04 09:54:00
3:54 AM,72.0,24.1,17,29.83,10.0,NNW,16.1,26.5,N/A,,Clear,330,2013-05-04 10:54:00
4:54 AM,72.0,24.1,17,29.82,10.0,NNW,15.0,26.5,N/A,,Clear,340,2013-05-04 11:54:00
5:54 AM,69.1,25.0,19,29.82,10.0,NW,10.4,-,N/A,,Clear,320,2013-05-04 12:54:00
6:54 AM,72.0,24.1,17,29.81,10.0,North,15.0,-,N/A,,Clear,350,2013-05-04 13:54:00
7:54 AM,73.9,26.1,17,29.80,10.0,North,13.8,-,N/A,,Clear,350,2013-05-04 14:54:00
8:54 AM,75.9,27.0,16,29.79,10.0,North,19.6,32.2,N/A,,Clear,360,2013-05-04 15:54:00
9:54 AM,78.1,26.1,15,29.77,10.0,North,25.3,32.2,N/A,,Clear,360,2013-05-04 16:54:00
10:54 AM,80.1,27.0,14,29.75,10.0,North,28.8,34.5,N/A,,Clear,360,2013-05-04 17:54:00
11:54 AM,82.9,26.1,13,29.72,10.0,North,23.0,29.9,N/A,,Clear,350,2013-05-04 18:54:00
12:54 PM,86.0,27.0,12,29.68,10.0,NNW,24.2,33.4,N/A,,Clear,340,2013-05-04 19:54:00
1:54 PM,87.1,28.0,12,29.64,10.0,North,21.9,27.6,N/A,,Clear,360,2013-05-04 20:54:00
2:54 PM,89.1,28.0,11,29.60,10.0,North,24.2,31.1,N/A,,Clear,350,2013-05-04 21:54:00
3:54 PM,89.1,26.1,10,29.57,10.0,North,24.2,32.2,N/A,,Clear,360,2013-05-04 22:54:00
4:54 PM,84.9,27.0,12,29.54,10.0,North,19.6,39.1,0.00,,Partly Cloudy,350,2013-05-04 23:54:00
5:54 PM,82.9,24.1,12,29.54,10.0,North,24.2,33.4,N/A,,Clear,10,2013-05-05 00:54:00
6:54 PM,84.0,25.0,12,29.53,10.0,NNE,23.0,36.8,N/A,,Clear,20,2013-05-05 01:54:00
7:54 PM,81.0,28.0,14,29.56,10.0,South,6.9,-,N/A,,Clear,190,2013-05-05 02:54:00
8:54 PM,78.1,28.9,17,29.57,10.0,North,8.1,-,N/A,,Clear,10,2013-05-05 03:54:00
9:54 PM,73.9,28.0,18,29.57,10.0,North,6.9,-,N/A,,Clear,350,2013-05-05 04:54:00
10:54 PM,75.9,30.0,19,29.56,10.0,North,11.5,-,N/A,,Scattered Clouds,360,2013-05-05 05:54:00
11:54 PM,77.0,32.0,19,29.55,10.0,North,10.4,29.9,0.00,Rain,Light Rain,360,2013-05-05 06:54:00